Lapse_Rate
5.3 5.3 5.2 5.1 5.2 6.0 6.3 6.0 6.6 5.8 6.7 6.7 7.1 6.7 6.2 6.1 6.3 6.3 6.6 7.3 7.8 7.6 7.8 8.0 8.1 8.6 8.9 9.0 8.6 8.2 8.0 7.6 7.4 7.2 6.9 7.0 6.9 7.0 6.9 6.4 6.1 5.8 5.0 5.6
5.1 5.6 5.7 5.7 5.2 5.3 6.0 6.4 6.9 6.8 6.8 7.1 7.6 7.3 6.7 6.6 6.9 6.8 6.7 7.0 7.5 7.6 7.6 7.4 7.5 7.8 8.3 8.5 8.4 8.1 7.7 7.6 7.5 7.3 7.2 7.0 6.9 7.4 6.2 5.9 5.6 5.9 5.8 4.4
5.9 6.6 6.1 5.6 5.4 6.0 6.1 6.5 6.9 7.0 7.3 7.4 7.1 7.3 7.3 6.5 6.6 7.3 7.2 7.4 7.0 7.2 7.2 7.3 7.6 7.7 7.8 8.1 7.9 7.8 7.6 7.5 7.5 7.3 7.4 7.4 7.1 6.6 5.9 5.8 6.0 5.7 5.9 5.3
6.5 6.5 6.5 5.8 6.4 6.8 7.1 6.8 7.0 7.2 7.2 7.2 6.9 7.2 6.9 6.6 6.3 7.1 7.4 7.3 7.2 7.3 6.9 6.2 7.1 7.3 7.7 7.9 7.7 7.5 7.6 7.6 7.6 7.5 7.4 7.2 7.3 7.4 7.3 5.9 5.3 5.6 5.6 4.3
7.0 7.1 7.0 6.6 6.8 8.0 7.8 7.6 7.7 7.7 8.0 7.8 7.4 6.6 7.1 6.6 6.7 6.8 7.1 7.2 7.2 7.3 7.3 7.3 7.2 7.3 7.4 7.4 7.5 7.7 7.7 7.7 7.6 7.5 7.5 7.4 7.5 7.6 7.2 6.1 5.6 5.6 4.7 4.7
7.2 7.4 6.8 7.5 8.2 7.9 7.7 7.8 7.7 8.1 7.9 7.8 7.6 7.0 6.7 6.8 7.4 7.4 6.9 7.2 7.4 7.8 7.2 7.4 7.3 7.5 7.5 7.3 7.4 7.7 7.9 7.8 7.5 7.2 7.4 7.4 7.3 7.1 6.6 5.6 5.4 5.3 4.6 4.3
7.4 7.4 7.3 7.9 8.5 7.8 7.7 8.2 8.5 8.2 8.4 8.3 8.0 7.6 7.1 6.9 7.0 6.8 6.6 6.9 7.3 7.5 8.0 7.8 7.6 7.6 7.3 7.5 7.2 7.4 7.6 7.2 7.3 7.1 7.3 7.2 6.9 6.7 5.9 5.7 5.6 5.4 5.4 4.0
7.5 7.1 7.1 8.2 8.0 7.7 8.5 8.1 8.3 8.3 7.9 8.0 7.9 7.8 7.5 6.9 6.7 6.6 6.3 6.3 6.2 6.5 7.7 8.2 8.0 7.7 7.5 7.1 6.8 6.9 7.0 7.1 7.1 7.1 7.3 7.1 6.8 6.0 5.3 5.6 5.7 5.1 4.3 3.9
8.1 8.0 8.1 7.9 8.0 8.1 8.0 7.8 7.7 7.8 8.0 8.1 8.0 7.7 7.7 7.2 7.0 6.8 6.6 6.4 6.1 6.1 6.9 7.5 7.9 7.5 7.5 7.3 6.9 6.8 6.8 7.2 7.4 7.0 7.2 6.9 6.7 6.3 5.9 5.3 5.2 4.2 4.0 3.4
7.7 7.9 8.0 7.8 7.6 7.7 8.0 8.1 8.0 7.9 7.7 7.7 7.7 7.7 7.6 7.2 7.2 6.6 7.1 7.1 6.8 6.6 6.7 6.5 6.4 6.7 6.7 6.8 6.8 6.9 7.0 7.1 7.2 6.9 7.2 6.9 6.4 5.7 5.5 5.0 4.4 4.0 3.5 3.3
7.3 7.2 7.2 7.6 7.8 7.7 7.8 7.8 7.6 7.8 7.8 7.6 7.3 7.8 7.6 7.2 7.1 6.8 7.3 6.3 6.5 6.0 6.2 6.0 6.2 6.8 6.9 7.0 7.1 7.1 6.8 6.8 7.0 6.8 6.5 6.1 5.6 5.4 5.3 4.1 3.8 3.3 3.2 3.1
7.3 7.6 7.4 7.5 7.8 7.8 7.9 8.1 8.0 7.9 7.7 7.5 7.1 7.3 7.6 7.2 6.9 7.1 6.6 6.1 6.1 6.2 5.7 6.0 6.0 6.4 6.5 6.5 6.4 6.4 6.2 6.3 6.2 6.2 6.1 5.6 5.4 5.0 4.1 3.8 3.3 3.0 3.0 3.0
7.8 7.9 8.1 7.7 8.0 8.1 7.9 7.9 7.6 7.4 7.3 7.2 7.3 7.3 7.4 7.0 7.0 7.2 7.2 6.8 6.3 6.2 5.8 5.6 5.7 6.1 6.0 6.0 6.2 6.2 6.4 5.9 5.5 5.7 5.1 5.6 5.3 4.3 4.0 3.5 3.1 3.2 3.2 3.4
7.7 7.1 7.4 7.9 7.8 7.7 7.5 7.8 7.9 7.7 7.4 7.4 7.1 7.4 7.4 7.0 7.3 7.2 6.9 6.8 6.4 6.3 6.1 5.7 5.5 5.5 5.6 5.7 5.9 5.8 5.7 5.3 5.2 5.1 5.2 5.0 4.6 4.4 4.0 3.7 3.7 3.6 3.8 3.1
8.0 7.6 7.3 7.5 7.4 7.4 7.8 7.7 7.5 7.5 7.6 7.6 7.3 7.2 6.8 6.9 6.5 6.6 6.1 6.3 6.0 6.1 5.4 5.7 5.5 5.4 5.5 5.4 5.2 5.2 5.2 5.1 4.5 4.3 4.4 4.1 4.0 3.9 3.8 3.6 3.7 3.7 3.0 2.2
8.0 7.9 7.7 7.6 7.7 7.8 7.7 7.9 7.8 7.7 7.3 7.1 7.2 6.8 6.7 6.0 6.5 5.9 6.1 6.0 5.9 5.6 5.2 5.3 5.3 5.4 5.2 4.9 4.4 4.4 4.1 4.0 4.0 3.9 3.8 3.6 3.5 3.7 3.7 3.8 3.9 2.6 1.9 2.1
7.7 7.7 7.9 7.6 7.6 7.6 7.9 7.9 7.6 7.2 6.8 7.0 6.9 6.7 6.3 6.1 6.1 6.1 6.2 5.9 5.4 5.4 5.4 5.1 4.8 4.5 4.1 4.3 3.9 3.7 3.8 3.8 3.8 3.6 3.7 3.8 3.9 3.9 3.8 3.4 2.8 2.3 2.4 2.9
7.5 7.4 7.2 7.1 7.3 7.7 7.8 7.5 6.7 6.6 6.8 6.7 6.7 6.5 6.3 6.2 5.8 5.8 5.7 5.2 5.1 4.9 4.6 4.3 4.0 4.0 3.9 3.8 3.6 3.6 3.6 3.7 3.9 4.0 4.0 4.0 3.9 3.5 2.6 2.4 2.8 3.3 3.4 3.2
7.8 7.6 7.3 7.2 7.3 7.4 7.3 6.8 6.6 6.6 6.5 6.4 6.4 6.2 5.7 5.6 5.5 5.5 5.4 5.2 5.0 4.8 4.6 4.3 4.0 3.8 3.7 3.6 3.7 3.8 4.1 4.1 4.0 3.8 3.4 2.8 2.4 2.6 3.0 3.3 3.3 3.2 3.1 3.2
7.3 7.0 6.9 6.9 6.8 6.9 6.7 6.5 6.4 6.3 5.9 5.7 5.5 5.2 5.2 5.1 4.8 4.8 4.7 4.7 4.5 4.5 4.4 4.2 4.0 3.9 4.0 4.0 4.0 4.0 3.9 3.7 3.3 2.9 3.0 3.2 3.3 3.3 3.3 3.2 3.2 3.3 3.3 3.3
6.8 6.3 6.1 6.3 6.6 6.5 6.4 5.9 5.7 5.3 5.1 4.7 4.7 4.5 4.3 4.1 4.2 4.3 4.2 4.3 4.3 4.3 4.2 4.0 4.0 4.0 3.9 3.7 3.6 3.4 3.1 3.0 3.2 3.2 3.2 3.2 3.2 3.2 3.2 3.3 3.3 3.4 3.5 3.6
6.1 6.0 5.9 6.0 6.2 6.0 5.6 5.3 5.1 4.8 4.4 4.3 4.2 4.0 4.0 4.0 4.1 4.2 4.2 4.2 4.1 4.1 4.0 4.0 3.9 3.5 3.4 3.4 3.4 3.5 3.4 3.4 3.3 3.2 3.2 3.2 3.2 3.3 3.4 3.5 3.6 3.7 3.9 4.0
5.7 5.7 5.6 5.5 5.5 5.4 5.1 4.9 4.7 4.5 4.4 4.3 4.3 4.3 4.3 4.4 4.3 4.2 4.4 4.3 4.1 3.7 3.5 3.5 3.7 3.8 3.8 3.7 3.7 3.7 3.7 3.7 3.7 3.7 3.7 3.7 3.7 3.8 3.8 3.9 3.9 4.0 4.1 4.3
5.4 5.4 5.4 5.3 5.1 5.2 5.2 5.0 5.1 4.9 4.9 4.8 4.7 4.3 3.9 4.1 4.1 4.0 4.1 4.1 4.0 4.0 3.9 3.8 3.7 3.7 3.7 3.7 3.8 3.9 3.9 3.9 3.8 3.8 3.8 3.8 3.8 3.9 4.0 4.1 4.2 4.3 4.4 4.6
5.7 5.6 5.7 5.7 5.8 5.8 5.6 5.3 5.1 5.0 5.0 5.1 5.0 4.8 4.7 4.5 4.4 4.5 4.2 4.1 4.0 4.0 3.9 3.9 3.9 3.9 3.8 3.9 3.8 3.9 3.9 3.9 3.9 4.0 4.1 4.2 4.2 4.3 4.4 4.5 4.7 4.9 4.9 4.8
6.0 6.1 6.0 5.8 5.9 5.8 5.8 5.5 5.7 5.4 5.1 5.1 5.0 4.9 4.8 4.6 4.4 4.3 4.3 4.2 4.2 4.3 4.2 4.1 4.0 4.0 3.9 3.9 3.9 3.9 4.0 4.1 4.3 4.5 4.6 4.7 4.8 4.8 4.8 4.8 4.7 4.7 4.5 4.4
6.4 6.2 6.0 6.0 5.8 5.6 5.3 5.2 5.2 5.2 5.1 5.0 4.9 4.8 4.7 4.6 4.5 4.4 4.3 4.3 4.2 4.2 4.2 4.2 4.2 4.3 4.3 4.4 4.5 4.7 4.8 4.8 4.8 4.8 4.8 4.7 4.6 4.4 4.3 4.2 4.2 4.1 4.0 3.9
Wind_Speed
11 8 6 11 15 16 13 17 14 24 18 22 26 21 15 21 21 24 19 19 20 12 7 6 6 7 9 10 13 15 15 15 17 15 13 12 14 15 15 14 14 16 10 13
20 15 11 15 18 18 18 19 14 20 23 19 25 24 13 16 19 19 20 24 22 9 7 9 9 9 10 11 13 14 15 14 13 13 14 14 13 13 14 14 14 16 14 12
20 13 13 14 14 12 15 17 15 17 19 21 17 21 15 14 18 20 19 19 18 18 9 10 12 14 15 14 12 13 13 14 15 15 15 15 15 16 15 15 16 15 13 14
14 9 20 10 4 7 14 17 17 19 19 20 14 17 19 13 14 17 20 20 20 15 10 12 13 13 11 14 16 16 15 14 15 15 15 15 17 17 16 15 16 14 13 11
10 14 18 21 23 17 14 22 15 18 19 22 15 16 8 7 15 16 18 18 18 18 14 13 13 15 14 15 16 16 17 17 18 18 18 18 18 18 17 16 15 14 13 12
1 7 11 18 27 3 6 10 9 10 18 5 7 10 11 9 9 14 17 16 19 21 20 15 13 12 15 17 19 20 19 19 19 18 20 20 19 18 16 17 15 12 12 11
12 10 9 18 19 2 7 17 21 8 8 8 8 7 17 13 10 11 13 15 21 23 21 18 9 15 18 17 20 17 14 16 17 18 19 18 18 16 15 16 15 14 14 11
3 8 13 12 5 11 18 17 12 7 9 10 8 10 13 17 15 15 12 12 15 18 23 22 12 17 20 21 18 17 18 18 18 18 15 16 21 17 17 16 16 14 12 10
9 7 8 6 9 9 3 6 7 7 10 8 11 9 12 14 15 16 13 12 10 15 22 24 15 20 20 17 16 18 19 19 19 19 17 17 20 18 15 14 13 11 10 9
11 21 26 18 18 18 19 19 18 16 17 17 17 12 12 13 13 13 8 10 12 15 18 19 8 10 9 13 16 19 19 19 17 17 17 16 13 13 13 12 11 10 9 9
16 23 18 20 21 21 21 19 19 17 16 16 11 14 11 13 14 13 8 5 2 7 10 12 12 10 12 14 15 14 14 15 15 13 15 15 12 11 11 10 12 11 10 10
13 13 6 16 12 12 15 17 17 14 15 13 10 15 9 12 14 16 15 5 3 4 2 7 8 9 10 14 20 20 14 10 11 13 12 11 12 10 12 12 13 11 12 10
17 19 14 19 24 22 16 17 12 12 14 17 12 8 11 15 18 17 7 7 7 7 8 3 7 9 9 12 14 16 16 15 12 12 12 12 10 10 9 7 15 15 15 16
10 15 12 19 14 13 11 15 11 13 14 10 12 7 10 15 9 3 5 5 7 7 7 7 11 9 6 10 12 12 15 17 12 11 10 9 9 9 9 10 9 4 9 11
16 16 17 21 19 20 19 17 18 16 14 13 12 10 6 5 4 5 6 7 7 6 7 10 12 11 11 13 15 14 11 10 10 8 7 9 8 9 7 8 7 6 5 4
14 13 14 14 17 19 17 16 15 17 13 13 9 6 5 7 8 8 6 5 8 7 7 9 10 8 10 12 12 10 9 13 11 9 8 8 7 8 7 7 7 6 5 4
11 14 15 16 13 15 21 19 17 16 9 8 7 9 10 10 9 9 8 8 9 9 8 9 10 9 10 11 10 7 7 8 11 7 7 7 7 7 7 7 7 6 5 4
10 14 16 18 18 17 14 8 7 7 7 9 9 10 11 9 9 9 10 10 11 11 9 9 9 9 9 10 10 8 7 7 6 7 6 6 6 6 6 6 6 6 3 5
15 18 19 19 13 3 2 5 8 9 9 10 12 11 11 10 10 10 10 11 11 10 6 10 11 11 9 9 8 7 7 7 6 5 5 6 5 4 5 5 4 4 4 4
11 12 12 12 13 10 10 9 12 14 12 14 13 13 13 11 11 11 11 10 8 6 8 9 10 7 6 6 6 5 6 7 6 5 5 4 4 4 3 4 4 4 3 4
9 10 10 11 13 14 13 12 15 15 13 14 15 14 13 12 11 11 12 10 9 10 10 12 7 5 4 5 6 6 6 6 6 5 5 4 4 4 3 3 3 2 2 2
8 8 10 11 14 14 14 14 16 15 16 16 17 16 16 15 16 16 14 11 8 14 10 9 8 12 9 12 8 8 8 8 6 5 5 4 3 3 2 2 2 2 1 1
8 10 12 13 14 16 17 17 17 18 18 18 17 16 15 11 9 9 10 11 10 14 11 9 14 17 16 9 8 8 8 8 6 5 4 4 3 3 2 0 1 1 2 3
10 12 13 13 15 17 18 16 17 17 16 17 17 14 12 11 12 9 10 15 19 17 12 11 13 16 14 8 8 8 7 6 5 4 4 5 4 3 3 3 3 3 2 3
10 11 11 13 14 11 14 13 14 14 17 17 17 15 16 11 10 8 10 11 16 14 11 15 16 15 9 8 8 7 7 6 5 5 4 4 4 3 3 3 2 2 2 2
11 10 10 13 10 9 9 10 11 9 11 12 11 10 10 9 10 11 11 13 12 13 10 9 9 9 9 9 8 8 6 6 6 5 4 4 3 3 3 3 3 3 3 3
10 12 9 9 9 9 9 10 11 10 10 10 11 9 10 10 11 10 12 10 10 10 9 8 8 8 7 6 6 5 4 4 4 3 3 3 2 1 1 0 0 1 2 2
Wind_Direction
283 302 282 283 282 280 264 265 263 285 274 274 275 293 293 302 298 294 295 290 287 280 238 200 186 176 163 159 162 162 164 169 174 168 170 164 160 157 151 149 141 123 116 120
285 294 291 286 267 268 271 270 261 260 269 261 268 286 301 291 294 291 290 291 285 256 193 197 207 194 178 173 173 167 166 171 164 160 156 159 153 142 137 135 132 129 128 127
278 297 305 281 269 247 257 250 256 259 268 283 279 289 288 301 304 298 292 288 289 295 253 230 211 193 187 180 164 167 170 164 166 167 162 152 144 140 138 133 128 123 124 120
266 300 270 268 223 265 272 258 259 268 273 274 272 281 283 293 293 328 329 321 309 289 276 255 236 209 183 170 173 172 172 168 161 158 158 154 149 142 137 132 130 128 123 118
247 251 274 293 279 257 255 273 270 271 275 277 301 301 327 344 340 318 312 314 310 305 285 248 206 197 187 180 177 174 173 170 165 162 156 153 150 145 137 133 134 134 135 142
185 241 249 259 267 238 298 279 252 259 276 270 314 302 302 294 303 304 303 313 309 302 297 266 240 187 186 187 179 181 178 173 164 161 159 156 150 144 145 140 135 130 126 134
227 244 256 250 271 254 242 252 265 206 235 245 267 262 290 294 286 284 288 314 325 323 310 266 213 179 189 184 192 186 163 160 161 160 158 149 141 144 144 137 132 139 135 135
200 233 256 230 225 191 245 266 260 251 258 256 247 270 287 292 292 300 300 319 332 326 314 296 204 183 191 193 181 164 156 161 160 156 154 150 142 144 138 139 139 134 132 131
190 215 245 206 225 217 213 234 264 239 267 256 268 258 289 291 297 295 299 306 335 339 321 310 242 190 192 188 160 155 156 158 157 153 154 152 145 146 138 140 136 134 140 149
251 254 255 260 276 275 276 262 264 264 271 274 269 275 276 285 285 279 292 318 331 357 322 313 298 200 168 147 155 154 154 152 152 149 146 145 140 140 137 136 137 140 149 159
249 257 272 271 270 269 269 266 265 265 259 247 252 267 255 274 280 273 267 271 352 14 314 313 314 94 113 122 132 130 136 144 141 140 136 134 129 132 128 134 149 158 169 168
251 248 217 261 250 251 257 265 267 257 262 256 239 259 264 269 270 271 267 220 189 130 332 358 316 83 104 128 136 135 131 136 140 133 130 125 119 107 87 127 138 137 145 152
249 257 251 263 265 262 257 259 256 252 253 264 261 231 248 269 276 278 234 169 165 143 125 167 77 60 85 112 124 129 126 134 131 120 123 125 131 137 134 105 128 142 139 135
246 270 274 259 259 272 271 269 254 263 259 239 245 246 257 275 291 196 165 126 107 125 117 115 98 80 76 100 108 117 118 119 120 117 119 133 133 134 135 142 140 118 131 141
260 256 251 269 276 270 272 276 272 262 249 249 243 237 215 210 143 96 101 94 99 103 110 109 105 103 103 102 104 109 108 105 112 116 122 123 124 122 125 124 129 131 112 63
288 278 269 256 263 274 274 271 258 259 250 241 230 189 133 113 110 97 74 97 127 128 113 115 106 104 104 107 103 98 98 101 112 117 118 117 122 125 126 128 135 146 158 159
319 313 310 294 285 286 280 268 258 251 231 183 165 136 125 112 99 96 87 78 81 77 77 92 93 88 86 89 98 104 110 109 112 112 122 129 129 136 145 149 154 168 172 151
308 295 288 281 277 278 277 265 268 236 178 156 133 127 117 108 114 108 97 93 83 73 74 82 84 88 95 101 104 104 109 116 118 121 123 130 141 146 152 155 167 168 133 162
324 316 318 297 272 212 57 49 51 58 80 109 103 93 96 105 103 97 97 93 93 94 79 95 93 90 90 91 100 106 111 111 112 123 134 129 131 134 143 148 145 147 157 162
331 337 2 4 38 44 57 60 71 67 67 80 85 87 86 85 88 82 76 69 68 89 89 88 90 91 100 106 104 113 117 119 125 121 118 112 119 126 124 133 147 162 173 187
354 6 18 42 49 51 59 68 75 73 73 76 80 77 77 73 69 74 75 72 43 62 73 71 67 67 75 79 72 76 83 87 86 87 91 96 100 101 102 129 149 155 164 164
27 36 46 56 64 65 63 68 72 74 72 72 73 74 70 67 70 67 52 62 55 60 59 58 58 63 68 70 69 69 67 68 73 77 81 86 100 112 127 132 159 186 204 232
42 56 68 70 67 67 63 61 62 65 66 64 63 65 68 63 55 70 69 39 60 63 62 56 56 57 58 57 58 58 61 61 58 59 62 65 71 79 83 90 270 249 250 248
59 62 66 69 71 68 66 60 64 65 67 65 62 62 71 78 71 64 72 69 66 65 61 56 55 54 58 57 56 55 53 52 50 43 44 47 42 34 30 13 355 341 318 302
59 62 64 66 68 68 72 73 73 68 70 67 64 63 67 64 75 73 68 63 59 62 56 46 48 49 50 49 49 49 46 42 39 43 39 44 39 37 37 42 38 21 10 347
66 66 65 62 67 69 71 74 75 68 72 74 66 60 60 60 60 61 59 57 56 57 53 45 44 46 44 43 44 44 46 43 41 41 34 32 30 35 30 26 17 9 4 340
65 65 68 65 61 67 73 77 81 75 69 73 75 58 56 57 55 57 55 52 53 53 50 45 43 42 43 39 36 29 28 30 36 34 20 8 10 12 63 62 299 287 296 303